Weather History for Grant County, OR

Change the Weather History Date:

Thursday, November 1, 2012

  Actual Average (KBNO) Record (KBNO)
Temperature  
Mean Temperature 46 °F 39 °F  
Max Temperature 51 °F 53 °F 70 °F (1949)
Min Temperature 41 °F 25 °F -1 °F (2002)
Degree Days  
Heating Degree Days 19 26  
Month to date heating degree days 26  
Since 1 July heating degree days 1076  
Cooling Degree Days 0 0  
Month to date cooling degree days 0  
Year to date cooling degree days 215  
Moisture  
Dew Point 37 °F    
Average Humidity 66    
Maximum Humidity 81    
Minimum Humidity 50    
Precipitation  
Precipitation 0.02 in 0.03 in 0.78 in (1948)
Month to date precipitation 0.03  
Year to date precipitation 8.23  
Sea Level Pressure  
Sea Level Pressure 29.96 in    
Wind  
Wind Speed 13 mph (South)    
Max Wind Speed 25 mph    
Max Gust Speed 34 mph    
Visibility 10 miles    
Events Rain    
T = Trace of Precipitation, MM = Missing Value Source: NWS Daily Summary

Daily Weather History Graph

Daily Weather History Graph

Search for Another Location

Airport:

Trip Planner

Search our weather history database for the weather conditions in past years. The results will help you decide how hot, cold, wet, or windy it might be!

Date:

Astronomy

Nov. 01, 2012 Rise Set
Actual Time 7:33 AM PDT 5:44 PM PDT
Civil Twilight 7:03 AM PDT 6:14 PM PDT
Nautical Twilight 6:29 AM PDT 6:48 PM PDT
Astronomical Twilight 5:55 AM PDT 7:22 PM PDT
Moon 7:40 PM PDT (11/1) 10:15 AM PDT (11/1)
Length of Visible Light 11h 11m
Length of Day
10h 10m
Waning Gibbous, 92% of the Moon is Illuminated
Nov 1
Waning Gibbous
Nov 6
Last Quarter
Nov 13
New
Nov 20
First Quarter
Nov 28
Full

Hourly Weather History & Observations

Time (PDT) Temp. Windchill Dew Point Humidity Pressure Visibility Wind Dir Wind Speed Gust Speed Precip Events Conditions
12:15 AM 50.0 °F - 35.6 °F 58% 29.86 in 10.0 mi SW 15.0 mph - N/A   Clear
12:35 AM 50.0 °F - 35.6 °F 58% 29.87 in 10.0 mi SSW 19.6 mph 25.3 mph N/A   Clear
12:55 AM 50.0 °F - 35.6 °F 58% 29.87 in 10.0 mi SSW 18.4 mph 23.0 mph N/A   Clear
1:15 AM 50.0 °F - 35.6 °F 58% 29.87 in 10.0 mi SSW 18.4 mph 26.5 mph N/A   Clear
1:35 AM 50.0 °F - 35.6 °F 58% 29.88 in 10.0 mi SSW 16.1 mph 21.9 mph N/A   Clear
1:55 AM 48.2 °F - 35.6 °F 62% 29.88 in 10.0 mi South 17.3 mph 24.2 mph N/A   Clear
2:15 AM 48.2 °F - 35.6 °F 62% 29.87 in 10.0 mi South 20.7 mph - N/A   Clear
2:35 AM 48.2 °F - 35.6 °F 62% 29.88 in 10.0 mi South 17.3 mph 25.3 mph N/A   Clear
3:15 AM 48.2 °F - 33.8 °F 58% 29.86 in 10.0 mi South 21.9 mph 31.1 mph N/A   Mostly Cloudy
3:35 AM 48.2 °F - 33.8 °F 58% 29.86 in 10.0 mi South 25.3 mph 34.5 mph N/A   Scattered Clouds
3:55 AM 50.0 °F - 32.0 °F 50% 29.87 in 10.0 mi SSW 17.3 mph 27.6 mph N/A   Clear
4:15 AM 50.0 °F - 32.0 °F 50% 29.88 in 10.0 mi SW 9.2 mph - N/A   Clear
4:35 AM 50.0 °F - 32.0 °F 50% 29.88 in 10.0 mi SSE 12.7 mph 18.4 mph N/A   Mostly Cloudy
4:55 AM 50.0 °F - 32.0 °F 50% 29.89 in 10.0 mi SSW 10.4 mph - N/A   Overcast
5:15 AM 46.4 °F 42.9 °F 33.8 °F 62% 29.89 in 10.0 mi WSW 6.9 mph - N/A   Mostly Cloudy
5:35 AM 48.2 °F - 33.8 °F 58% 29.89 in 10.0 mi South 21.9 mph 32.2 mph N/A   Scattered Clouds
5:55 AM 48.2 °F - 33.8 °F 58% 29.89 in 10.0 mi South 20.7 mph 28.8 mph N/A   Mostly Cloudy
6:35 AM 46.4 °F 39.8 °F 35.6 °F 66% 29.90 in 10.0 mi South 16.1 mph 23.0 mph N/A Rain Light Rain
6:55 AM 46.4 °F 42.9 °F 35.6 °F 66% 29.90 in 10.0 mi South 6.9 mph 18.4 mph N/A   Overcast
7:15 AM 46.4 °F 40.7 °F 35.6 °F 66% 29.91 in 10.0 mi South 12.7 mph 17.3 mph N/A   Mostly Cloudy
7:35 AM 48.2 °F - 33.8 °F 58% 29.91 in 10.0 mi SSE 8.1 mph 17.3 mph N/A   Mostly Cloudy
7:55 AM 46.4 °F 39.8 °F 35.6 °F 66% 29.91 in 10.0 mi SSW 16.1 mph 23.0 mph N/A   Scattered Clouds
8:15 AM 46.4 °F 38.7 °F 35.6 °F 66% 29.92 in 10.0 mi South 20.7 mph 25.3 mph N/A   Scattered Clouds
8:35 AM 46.4 °F 38.3 °F 35.6 °F 66% 29.93 in 10.0 mi South 23.0 mph 31.1 mph N/A   Scattered Clouds
8:55 AM 44.6 °F 37.2 °F 37.4 °F 76% 29.93 in 10.0 mi South 17.3 mph 23.0 mph N/A   Mostly Cloudy
9:15 AM 50.0 °F - 37.4 °F 62% 29.94 in 10.0 mi South 15.0 mph 18.4 mph N/A   Mostly Cloudy
9:35 AM 50.0 °F - 35.6 °F 58% 29.95 in 10.0 mi SSW 12.7 mph - N/A   Overcast
9:55 AM 48.2 °F - 35.6 °F 62% 29.95 in 10.0 mi South 18.4 mph 23.0 mph N/A Rain Light Rain
10:15 AM 48.2 °F - 37.4 °F 66% 29.95 in 10.0 mi SSW 16.1 mph - N/A   Light Drizzle
10:35 AM 51.8 °F - 37.4 °F 58% 29.95 in 10.0 mi SSW 17.3 mph 20.7 mph N/A   Overcast
11:15 AM 51.8 °F - 35.6 °F 54% 29.95 in 10.0 mi South 12.7 mph 21.9 mph N/A   Overcast
11:35 AM 51.8 °F - 35.6 °F 54% 29.95 in 10.0 mi SSW 13.8 mph - N/A   Overcast
11:55 AM 51.8 °F - 33.8 °F 50% 29.96 in 10.0 mi SW 11.5 mph - N/A   Overcast
12:15 PM 51.8 °F - 35.6 °F 54% 29.96 in 10.0 mi WSW 5.8 mph - N/A   Overcast
12:35 PM 50.0 °F - 37.4 °F 62% 29.97 in 7.0 mi WNW 17.3 mph 23.0 mph N/A   Drizzle
12:55 PM 46.4 °F 43.5 °F 41.0 °F 81% 29.97 in 5.0 mi WNW 5.8 mph 10.4 mph 0.02 in Rain Rain
1:15 PM 50.0 °F - 42.8 °F 76% 29.97 in 10.0 mi West 3.5 mph - N/A   Overcast
1:35 PM 48.2 °F - 41.0 °F 76% 29.97 in 10.0 mi Calm Calm - N/A   Mostly Cloudy
1:55 PM 50.0 °F - 41.0 °F 71% 29.97 in 10.0 mi Calm Calm - N/A   Mostly Cloudy
2:15 PM 50.0 °F - 41.0 °F 71% 29.97 in 10.0 mi North 3.5 mph - N/A   Mostly Cloudy
2:35 PM 50.0 °F - 41.0 °F 71% 29.97 in 10.0 mi Calm Calm - N/A   Overcast
2:55 PM 51.8 °F - 41.0 °F 67% 29.97 in 10.0 mi Calm Calm - N/A   Overcast
3:15 PM 51.8 °F - 41.0 °F 67% 29.97 in 10.0 mi Calm Calm - N/A   Overcast
3:35 PM 51.8 °F - 41.0 °F 67% 29.98 in 10.0 mi Calm Calm - N/A   Overcast
4:15 PM 51.8 °F - 37.4 °F 58% 29.99 in 10.0 mi Calm Calm - N/A   Overcast
4:35 PM 51.8 °F - 39.2 °F 62% 30.00 in 10.0 mi West 3.5 mph - N/A   Overcast
4:55 PM 50.0 °F - 39.2 °F 66% 30.00 in 10.0 mi Calm Calm - N/A   Overcast
5:15 PM 50.0 °F - 39.2 °F 66% 30.00 in 10.0 mi Calm Calm - N/A   Overcast
5:35 PM 50.0 °F - 39.2 °F 66% 30.00 in 10.0 mi Calm Calm - N/A   Overcast
5:55 PM 50.0 °F - 41.0 °F 71% 30.00 in 10.0 mi Calm Calm - N/A   Overcast
6:15 PM 48.2 °F - 37.4 °F 66% 30.01 in 10.0 mi Calm Calm - N/A   Scattered Clouds
6:35 PM 46.4 °F 45.2 °F 39.2 °F 76% 30.01 in 10.0 mi SE 3.5 mph - N/A   Clear
6:55 PM 48.2 °F - 37.4 °F 66% 30.02 in 10.0 mi SE 3.5 mph - N/A   Clear
7:15 PM 46.4 °F 45.2 °F 37.4 °F 71% 30.02 in 10.0 mi East 3.5 mph - N/A   Clear
7:35 PM 46.4 °F 45.2 °F 35.6 °F 66% 30.03 in 10.0 mi East 3.5 mph - N/A   Scattered Clouds
7:55 PM 44.6 °F 40.2 °F 37.4 °F 76% 30.03 in 10.0 mi SE 8.1 mph - N/A   Overcast
8:15 PM 46.4 °F 42.9 °F 37.4 °F 71% 30.04 in 10.0 mi East 6.9 mph - N/A   Overcast
8:35 PM 44.6 °F 40.2 °F 37.4 °F 76% 30.04 in 10.0 mi East 8.1 mph - N/A   Overcast
8:55 PM 44.6 °F 39.7 °F 37.4 °F 76% 30.05 in 10.0 mi East 9.2 mph - N/A   Mostly Cloudy
9:15 PM 44.6 °F 39.7 °F 37.4 °F 76% 30.06 in 10.0 mi East 9.2 mph - N/A   Mostly Cloudy
9:35 PM 44.6 °F 40.7 °F 37.4 °F 76% 30.07 in 10.0 mi East 6.9 mph - N/A   Scattered Clouds
9:55 PM 42.8 °F 37.5 °F 37.4 °F 81% 30.07 in 10.0 mi East 9.2 mph - N/A   Scattered Clouds
10:15 PM 42.8 °F 38.6 °F 35.6 °F 76% 30.07 in 10.0 mi East 6.9 mph - N/A   Clear
10:35 PM 42.8 °F 38.6 °F 35.6 °F 76% 30.08 in 10.0 mi ESE 6.9 mph - N/A   Clear
10:55 PM 41.0 °F 35.8 °F 35.6 °F 81% 30.08 in 10.0 mi East 8.1 mph - N/A   Clear
11:15 PM 42.8 °F 37.5 °F 35.6 °F 76% 30.09 in 10.0 mi ESE 9.2 mph - N/A   Clear
11:35 PM 41.0 °F 35.2 °F 35.6 °F 81% 30.09 in 10.0 mi ESE 9.2 mph - N/A   Clear
11:55 PM 41.0 °F 34.7 °F 35.6 °F 81% 30.09 in 10.0 mi SE 10.4 mph - N/A   Clear